Find Optus 10

NORAD ID: 40146 Int'l Des: 2014-054 Owner: OPTS Country: AU operational
HEOCIRCULARGSOGEO

Live-Position

3D-Globus wird geladen...

Über Optus 10

Beschreibung wird geladen...

Nächste Überflüge

Passes for default location (London). Set your location on the main map for personalized predictions.

Höhenverlauf

Loading altitude history...

Zweizeiliger Elementsatz

1 40146U 14054A 26121.29831873 -.00000143 00000-0 00000-0 0 9991
2 40146 0.0661 302.1102 0002091 96.9927 83.5351 1.00271171 42565
Epoch: 1. Mai 2026 • Age: 7 hours

Aktueller Status

Höhe 35794.9 km
Geschwindigkeit 3.07 km/s
Subsatellitenpunkt -0.07°S, 156°E
Startdatum 11. Sept. 2014
Alter 11.6 years
Typ other

Technische Details

Klassifizierung Payload
Masse 3970.00 kg
Trockenmasse 2000.00 kg
Gesamtmasse 3970.00 kg
Länge 5.10 m
Durchmesser 3.10 m
Spannweite 24.70 m
Form Box + 2 pan
Hersteller SSL
Bus-Typ LS-1300LL
Phasenstatus In Orbit
Besitzer/Staat OPTS/AU

Most Searched